Regional Weather Roundup
Issued by NWS

Home | Current Version | Previous Version | Graphics & Text | Print | Product List | Glossary On
Versions: 1 2 3 4 5 6 7 8 9 10 11 12 13 14 15 16 17 18 19 20 21 22 23 24 25 26 27 28 29 30 31 32 33 34 35 36 37 38 39 40 41 42 43 44 45 46 47 48 49 50
000
ASUS43 KLMK 251910
RWRKY
KENTUCKY REGIONAL WEATHER ROUNDUP
NATIONAL WEATHER SERVICE LOUISVILLE KY
200 PM EST TUE NOV 25 2014

NOTE "FAIR" INDICATES FEW OR NO CLOUDS BELOW 12,000 FEET
WITH NO SIGNIFICANT WEATHER AND/OR OBSTRUCTIONS TO VISIBILITY.

KYZ001>023-026-027-061>063-070>075-252000-
WESTERN AND SOUTH CENTRAL KENTUCKY

CITY           SKY/WX    TMP DP  RH WIND       PRES   REMARKS
PADUCAH        SUNNY     44  24  45 NW5       30.16F
HENDERSON      MOSUNNY   43  27  52 NW7       30.15F
OWENSBORO      MOSUNNY   42  29  60 W14       30.16F
HOPKINSVILLE   MOSUNNY   45  25  45 VRB5      30.14F
BOWLING GREEN  SUNNY     47  24  40 W8        30.14F
GLASGOW        SUNNY     46  27  46 W3        30.13F
$$

KYZ024-025-028>034-038-045-046-053-252000-
NORTH CENTRAL KENTUCKY

CITY           SKY/WX    TMP DP  RH WIND       PRES   REMARKS
LOUISVILLE/SDF PTSUNNY   46  26  45 SW7       30.12F
LOUISVILLE/LOU SUNNY     44  26  49 SW8       30.13F
FORT KNOX      SUNNY     44  27  51 VRB3      30.11F
$$

KYZ035>037-039>044-047>052-055>060-089>105-252000-
NORTHEAST KENTUCKY

CITY           SKY/WX    TMP DP  RH WIND       PRES   REMARKS
LEXINGTON      SUNNY     47  28  47 W9        30.11F
COVINGTON      PTSUNNY   42  26  53 W12       30.10S
FRANKFORT      SUNNY     46  26  45 W8        30.11F
$$

KYZ054-064>069-076>088-106>120-252000-
SOUTHEAST KENTUCKY

CITY           SKY/WX    TMP DP  RH WIND       PRES   REMARKS
JACKSON        SUNNY     54  24  31 SW8G18    30.07F
LONDON         SUNNY     53  26  35 W9        30.08F
SOMERSET       SUNNY     50  30  46 SW7       30.10F
MIDDLESBORO    SUNNY     56  28  34 NW6       30.07F
MONTICELLO     CLEAR     53  30  41 VRB7      30.12F
$$




USA.gov is the U.S. government's official web portal to all federal, state and local government web resources and services.